Location: Unspecified
(58.7730°N, 5.8460°E)
Time: 13:55:54
(UTC+02:00)

Okean 3 - Visible Passes

Search period start: 31 May 2016 00:00
Search period end: 10 June 2016 00:00
Orbit: 577 x 605 km, 82.5° (Epoch: 31 May)

Date Brightness Start Highest point End Pass type
(mag) Time Alt. Az. Time Alt. Az. Time Alt. Az.
03 Jun 6.6 03:05:25 10° NNE 03:07:15 12° NE 03:09:04 10° ENE visible
04 Jun 6.4 03:13:27 10° NNE 03:16:02 16° NE 03:18:37 10° E visible
09 Jun 6.4 02:19:16 10° NNE 02:21:09 13° NE 02:23:02 10° ENE visible
